Showing default

BEIDOU 11, 38091

Orbit data source: Space-Track

BEIDOU 11, 38091 is a payload satellite owned by CNSA (CN) in GEO that was launched on Fri, 24 Feb 2012 UTC via a CHANG ZHENG 3C launch vehicle from the Xichang Space Center, China (XSC). Payload-class satellites include a variety of spacecraft equipped with specific instruments for various scientific and technological missions. These include communications satellites like Starlink; space stations such as the ISS; scientific satellites like the Hubble; Earth observation satellites from companies like Planet Labs, Umbra, and HawkEye 360; GPS; miniature CubeSats for education and research; and military/defense satellites.

Not visible in the next 10 days
Identifier
38091, 2012-008A
Orbit
GEO
Country
Flag of CNCN / PRC
Related business
Manufacturer
CAST
Mission
Operational Defense Navigation
Bus & Motor
DFH-3B, FY-25
Mass
3,060 kg wet, 1,700 kg dry
Launch date (UTC)
2012-02-24 (14 years ago)
Launch vehicle
CHANG ZHENG 3C
Launch site
Xichang Space Center, China (XSC)
Object type
Payload
Rocket body
Debris
Shape & HBR
Box + 2 Pan, 9.0 m
Radar Cross Section
13.998 m², Large (>1 m²)

Expand to show TLE details & history
Last TLE update: 10 hours ago

TLE from 10 hours ago
0 BEIDOU 11
1 38091U 12008A   25353.13630441  .00000079  00000-0  00000-0 0  9998
2 38091   3.1246  70.6885 0012962 231.3225 253.8349  1.00268437 50562
Epoch: 2025-12-19T03:16Z
TLE epoch observation values (Epoch: 2025-12-19T03:16:16.701Z)
Latitude
2.55233°
Longitude
58.68602°
Altitude
35,801.773 km
Speed
3.074 km/s
True Right ascension
13h 02m 56s
True Declination
2° 32' 59"
Sunlit
Object was in daylight at epoch
Visualization orbit readout
Latitude
Unknown
Longitude
Unknown
Altitude
Unknown
Speed
Unknown
Apparent Right ascension
Unknown
Apparent Declination
Unknown
Sunlit
N/A
Visualization observer readout
Local Sidereal Time
12:31:01
Azimuth
Unknown
Elevation
Unknown
Doppler factor
Unknown
Orbital elements
Apogee altitude
35,843.256 km
Perigee altitude
35,733.943 km
Semi-major axis
42,166.736 km
Eccentricity
0.0013
Inclination
3.1246°
RAAN
70.6885°
Arg. of periapsis
231.3225°
True anomaly
253.6923°
Mean anomaly
253.8349°
Eccentric anomaly
253.7636°
Mean motion
0.25066 °/min
Orbital period
1,436.2 mins
BSTAR
0
Loading maneuver chart data...
Computing Atmospheric mass density...
Loading historical data...
Loading historical data...
Loading historical data...
Loading historical data...
Loading historical data...
Loading historical data...
Loading historical data...

Documentation

Showing up to 5 results
|